Starlink 36711

operational
NORAD ID: 68040 Int'l Des: 2026-041 Owner: SPXS Country: US Constellation: starlink
LEOCIRCULAR

About Starlink 36711

Description loading...

Live Position

Loading 3D Globe...

Upcoming Passes

Altitude History

Altitude vs Time

uPlot chart will show altitude changes over time

Two-Line Element Set

1 68040C 26041A 26061.44215278 .00459100 00000+0 61863-3 0 614
2 68040 53.1641 99.6777 0008489 277.7432 147.4070 16.05197679 11
Epoch: Mar 2, 2026 • Age: 57 hours

Current Status

Altitude 254.7 km
Velocity 7.76 km/s
Sub-Earth Point 3.82°N, 160.56°E
Launch Date Mar 2, 2026
Age 2 days
Type internet

Technical Details

Classification Payload
Mass 575.00 kg
Dry Mass 530.00 kg
Total Mass 575.00 kg
Length 0.30 m
Diameter 4.10 m
Span 29.00 m
Shape Box + pan
Manufacturer SPXS
Bus Type Starlink V2MO
Phase Status In Orbit
Owner/State SPXS/US

Large Constellations

Loading constellations...